User: anonymous   Login
Location: Newark
(34.9500°N, 139.9667°E)
Time: 23:57:25
(UTC+00:00)
Language:

Transit 2A - Orbit

View from above orbital plane
View from above orbital plane
View from above satellite
View from above satellite

Ground track
Ground track

The orbit data is extracted from the following two-line orbital elements,

1    45U 60007A   19344.48760628 -.00000038  00000-0  17415-4 0  9998
2    45  66.6929 161.5090 0248133  94.0476 268.9024 14.33659245 95470
Epoch (UTC): 10 December 2019 11:42:09
Eccentricity: 0.0248133
inclination: 66.6929°
perigee height: 602 km
apogee height: 957 km
right ascension of ascending node: 161.5090°
argument of perigee: 94.0476°
revolutions per day: 14.33659245
mean anomaly at epoch: 268.9024°
orbit number at epoch: 9547

The dashed part of the orbit path shows where the satellite is in the earth's shadow,  

DLR